DAL829 KSLC-KLAX

Flight info

Callsign DAL829
Flight time 1h 24m
Altitude 36000
Route ZIONZ1 EHK LAKRR Q73 HAKMN ANJLL4
Aircraft A321/M-SDE3FGHIRWY/LB1

Departure

Time 2026-05-05 18:27
Airport Salt Lake City International Airport (KSLC)

Arrival

Time 2026-05-05 19:52
Airport Los Angeles International Airport (KLAX)
Time Latitude Longitude Altitude Speed Heading
2026-05-05 18:19 40.78663 -111.97887 4231 ft 0 kts 184°
2026-05-05 18:19 40.78678 -111.97886 4231 ft 4 kts 184°
2026-05-05 18:19 40.78705 -111.97883 4231 ft 4 kts 176°
2026-05-05 18:20 40.78730 -111.97891 4231 ft 4 kts 144°
2026-05-05 18:20 40.78744 -111.97916 4231 ft 4 kts 90°
2026-05-05 18:20 40.78744 -111.97927 4231 ft 0 kts 84°
2026-05-05 18:22 40.78747 -111.97879 4231 ft 14 kts 84°
2026-05-05 18:22 40.78757 -111.97748 4231 ft 14 kts 81°
2026-05-05 18:22 40.78824 -111.97691 4231 ft 14 kts
2026-05-05 18:23 40.78963 -111.97708 4231 ft 24 kts 354°
2026-05-05 18:23 40.79123 -111.97728 4231 ft 22 kts 354°
2026-05-05 18:23 40.79271 -111.97746 4230 ft 20 kts 355°
2026-05-05 18:23 40.79436 -111.97764 4230 ft 27 kts 355°
2026-05-05 18:24 40.79616 -111.97784 4230 ft 25 kts 355°
2026-05-05 18:24 40.79780 -111.97801 4231 ft 23 kts 355°
2026-05-05 18:24 40.79928 -111.97818 4231 ft 20 kts 355°
2026-05-05 18:24 40.80059 -111.97833 4231 ft 18 kts 355°
2026-05-05 18:25 40.80201 -111.97846 4231 ft 25 kts 359°
2026-05-05 18:25 40.80320 -111.97839 4231 ft 25 kts
2026-05-05 18:25 40.80537 -111.97842 4231 ft 22 kts 355°
2026-05-05 18:25 40.80681 -111.97856 4230 ft 16 kts
2026-05-05 18:26 40.80740 -111.97767 4229 ft 14 kts 93°
2026-05-05 18:26 40.80680 -111.97692 4229 ft 12 kts 164°
2026-05-05 18:26 40.80559 -111.97674 4231 ft 34 kts 173°
2026-05-05 18:26 40.80101 -111.97620 4233 ft 97 kts 175°
2026-05-05 18:27 40.79244 -111.97521 4231 ft 148 kts 175°
2026-05-05 18:27 40.78084 -111.97388 4330 ft 178 kts 174°
2026-05-05 18:27 40.76894 -111.97263 5180 ft 171 kts 172°
2026-05-05 18:27 40.75701 -111.97070 5910 ft 174 kts 172°
2026-05-05 18:28 40.73245 -111.96526 7074 ft 198 kts 175°
2026-05-05 18:28 40.71801 -111.96521 7488 ft 215 kts 185°
2026-05-05 18:28 40.70273 -111.96702 8014 ft 226 kts 179°
2026-05-05 18:29 40.68678 -111.96599 8579 ft 234 kts 178°
2026-05-05 18:29 40.67030 -111.96502 9141 ft 240 kts 178°
2026-05-05 18:29 40.65345 -111.96406 9701 ft 245 kts 178°
2026-05-05 18:29 40.63617 -111.96306 10242 ft 253 kts 178°
2026-05-05 18:30 40.61831 -111.96198 10806 ft 261 kts 179°
2026-05-05 18:30 40.60001 -111.96088 11152 ft 275 kts 179°
2026-05-05 18:30 40.58012 -111.95969 11278 ft 296 kts 179°
2026-05-05 18:30 40.55887 -111.95837 11415 ft 316 kts 179°
2026-05-05 18:31 40.53623 -111.95695 11547 ft 335 kts 179°
2026-05-05 18:31 40.51235 -111.95547 11761 ft 350 kts 179°
2026-05-05 18:31 40.48778 -111.95390 12267 ft 356 kts 179°
2026-05-05 18:31 40.46295 -111.95231 12836 ft 359 kts 179°
2026-05-05 18:32 40.43791 -111.95064 13402 ft 362 kts 179°
2026-05-05 18:32 40.41261 -111.94883 13944 ft 366 kts 178°
2026-05-05 18:32 40.38709 -111.94699 14480 ft 369 kts 178°
2026-05-05 18:32 40.36136 -111.94518 15016 ft 372 kts 178°
2026-05-05 18:33 40.33538 -111.94342 15519 ft 375 kts 178°
2026-05-05 18:33 40.30916 -111.94162 16014 ft 379 kts 178°
2026-05-05 18:33 40.28268 -111.93978 16499 ft 382 kts 178°
2026-05-05 18:33 40.25596 -111.94059 16975 ft 385 kts 187°
2026-05-05 18:34 40.22925 -111.94480 17442 ft 388 kts 187°
2026-05-05 18:34 40.20229 -111.94909 17900 ft 392 kts 187°
2026-05-05 18:34 40.17512 -111.95344 18341 ft 395 kts 187°
2026-05-05 18:34 40.14809 -111.95775 18779 ft 398 kts 187°
2026-05-05 18:35 40.12048 -111.96207 19215 ft 400 kts 186°
2026-05-05 18:35 40.09271 -111.96624 19615 ft 403 kts 186°
2026-05-05 18:35 40.06472 -111.97026 20021 ft 406 kts 186°
2026-05-05 18:35 40.03655 -111.97424 20431 ft 409 kts 186°
2026-05-05 18:36 40.00821 -111.97825 20833 ft 411 kts 186°
2026-05-05 18:36 39.97974 -111.98236 21226 ft 412 kts 186°
2026-05-05 18:36 39.95112 -111.98656 21587 ft 415 kts 186°
2026-05-05 18:36 39.92228 -111.99077 21943 ft 417 kts 186°
2026-05-05 18:37 39.89331 -111.99497 22304 ft 420 kts 186°
2026-05-05 18:37 39.86417 -111.99924 22675 ft 423 kts 186°
2026-05-05 18:37 39.83523 -112.00349 23026 ft 425 kts 186°
2026-05-05 18:37 39.80575 -112.00781 23367 ft 427 kts 186°
2026-05-05 18:38 39.77613 -112.01211 23704 ft 430 kts 186°
2026-05-05 18:38 39.74635 -112.01647 24040 ft 432 kts 186°
2026-05-05 18:38 39.71643 -112.02084 24371 ft 434 kts 186°
2026-05-05 18:38 39.68635 -112.02520 24700 ft 436 kts 186°
2026-05-05 18:39 39.65615 -112.02956 25024 ft 437 kts 186°
2026-05-05 18:39 39.62583 -112.03395 25331 ft 439 kts 186°
2026-05-05 18:39 39.59538 -112.03837 25648 ft 441 kts 186°
2026-05-05 18:39 39.56477 -112.04281 25931 ft 444 kts 186°
2026-05-05 18:40 39.53403 -112.04730 26217 ft 446 kts 186°
2026-05-05 18:40 39.50318 -112.05182 26502 ft 447 kts 186°
2026-05-05 18:40 39.47214 -112.05635 26778 ft 449 kts 186°
2026-05-05 18:40 39.44099 -112.06084 27076 ft 451 kts 186°
2026-05-05 18:41 39.40970 -112.06526 27359 ft 452 kts 186°
2026-05-05 18:41 39.37835 -112.06967 27628 ft 454 kts 186°
2026-05-05 18:41 39.34686 -112.07412 27880 ft 456 kts 186°
2026-05-05 18:41 39.31526 -112.07859 28127 ft 458 kts 186°
2026-05-05 18:42 39.28354 -112.08310 28384 ft 459 kts 186°
2026-05-05 18:42 39.25174 -112.08763 28642 ft 460 kts 186°
2026-05-05 18:42 39.21980 -112.09215 28872 ft 462 kts 186°
2026-05-05 18:42 39.18783 -112.09664 29093 ft 464 kts 186°
2026-05-05 18:43 39.15628 -112.10254 29311 ft 465 kts 192°
2026-05-05 18:43 39.12521 -112.11433 29544 ft 467 kts 201°
2026-05-05 18:43 39.09575 -112.13201 29765 ft 468 kts 210°
2026-05-05 18:43 39.06739 -112.15277 29968 ft 470 kts 210°
2026-05-05 18:44 39.03902 -112.17355 30282 ft 468 kts 210°
2026-05-05 18:44 39.01072 -112.19424 30602 ft 467 kts 210°
2026-05-05 18:44 38.98250 -112.21481 30928 ft 466 kts 210°
2026-05-05 18:44 38.95433 -112.23531 31254 ft 465 kts 210°
2026-05-05 18:45 38.92625 -112.25572 31587 ft 463 kts 210°
2026-05-05 18:45 38.89829 -112.27605 31908 ft 461 kts 210°
2026-05-05 18:45 38.87037 -112.29629 32226 ft 460 kts 210°
2026-05-05 18:45 38.84257 -112.31642 32540 ft 458 kts 210°
2026-05-05 18:46 38.81489 -112.33646 32857 ft 456 kts 210°
2026-05-05 18:46 38.78732 -112.35641 33167 ft 454 kts 210°
2026-05-05 18:46 38.75984 -112.37628 33471 ft 453 kts 210°
2026-05-05 18:46 38.73249 -112.39606 33768 ft 451 kts 210°
2026-05-05 18:47 38.70525 -112.41572 34057 ft 449 kts 210°
2026-05-05 18:47 38.67807 -112.43527 34328 ft 447 kts 210°
2026-05-05 18:47 38.65141 -112.45447 34608 ft 445 kts 210°
2026-05-05 18:47 38.62448 -112.47387 34885 ft 443 kts 210°
2026-05-05 18:48 38.59764 -112.49321 35156 ft 441 kts 210°
2026-05-05 18:48 38.57094 -112.51242 35414 ft 439 kts 210°
2026-05-05 18:48 38.54434 -112.53153 35648 ft 439 kts 210°
2026-05-05 18:48 38.51770 -112.55066 35771 ft 440 kts 210°
2026-05-05 18:49 38.49100 -112.56980 35914 ft 441 kts 210°
2026-05-05 18:49 38.46417 -112.58904 35945 ft 444 kts 210°
2026-05-05 18:49 38.41013 -112.62771 35947 ft 446 kts 210°
2026-05-05 18:50 38.35625 -112.66606 35952 ft 446 kts 210°
2026-05-05 18:50 38.30207 -112.70466 35958 ft 446 kts 210°
2026-05-05 18:51 38.24787 -112.74330 35962 ft 447 kts 210°
2026-05-05 18:51 38.19353 -112.78182 35964 ft 447 kts 210°
2026-05-05 18:52 38.13909 -112.82033 35963 ft 448 kts 210°
2026-05-05 18:52 38.08465 -112.85890 35963 ft 449 kts 210°
2026-05-05 18:53 38.03011 -112.89749 35961 ft 449 kts 210°
2026-05-05 18:53 37.97542 -112.93601 35964 ft 450 kts 210°
2026-05-05 18:54 37.92123 -112.97421 35970 ft 441 kts 210°
2026-05-05 18:54 37.86774 -113.01186 35979 ft 439 kts 210°
2026-05-05 18:55 37.81432 -113.04938 35979 ft 439 kts 210°
2026-05-05 18:55 37.76084 -113.08697 35981 ft 439 kts 211°
2026-05-05 18:56 37.70796 -113.12572 35981 ft 440 kts 211°
2026-05-05 18:56 37.65560 -113.16476 35979 ft 440 kts 211°
2026-05-05 18:57 37.60230 -113.20399 35981 ft 441 kts 211°
2026-05-05 18:57 37.54909 -113.24274 35980 ft 442 kts 211°
2026-05-05 18:58 37.49613 -113.28116 35986 ft 442 kts 211°
2026-05-05 18:58 37.44276 -113.31984 35983 ft 443 kts 211°
2026-05-05 18:59 37.38936 -113.35862 35982 ft 443 kts 211°
2026-05-05 18:59 37.34506 -113.39082 35980 ft 443 kts 211°
2026-05-05 19:00 37.29170 -113.42949 35980 ft 442 kts 211°
2026-05-05 19:00 37.23842 -113.46799 35977 ft 441 kts 211°
2026-05-05 19:01 37.18515 -113.50641 35970 ft 441 kts 211°
2026-05-05 19:01 37.13201 -113.54465 35965 ft 440 kts 211°
2026-05-05 19:02 37.07936 -113.58251 35963 ft 439 kts 211°
2026-05-05 19:02 37.02646 -113.62040 35961 ft 437 kts 211°
2026-05-05 19:03 36.97371 -113.65820 35960 ft 436 kts 211°
2026-05-05 19:03 36.92116 -113.69588 35958 ft 435 kts 211°
2026-05-05 19:04 36.86868 -113.73332 35961 ft 434 kts 211°
2026-05-05 19:04 36.81634 -113.77065 35960 ft 433 kts 211°
2026-05-05 19:05 36.76414 -113.80794 35962 ft 432 kts 211°
2026-05-05 19:05 36.71207 -113.84496 35958 ft 430 kts 212°
2026-05-05 19:06 36.66041 -113.88150 35964 ft 429 kts 211°
2026-05-05 19:06 36.60863 -113.91817 35969 ft 428 kts 211°
2026-05-05 19:07 36.55698 -113.95477 35968 ft 427 kts 211°
2026-05-05 19:07 36.50539 -113.99127 35967 ft 426 kts 212°
2026-05-05 19:08 36.45394 -114.02758 35950 ft 425 kts 211°
2026-05-05 19:08 36.40238 -114.06382 35946 ft 426 kts 211°
2026-05-05 19:09 36.35087 -114.10002 35948 ft 425 kts 211°
2026-05-05 19:09 36.29944 -114.13617 35950 ft 424 kts 211°
2026-05-05 19:10 36.24812 -114.17222 35950 ft 424 kts 211°
2026-05-05 19:10 36.19680 -114.20821 35950 ft 423 kts 211°
2026-05-05 19:11 36.14549 -114.24410 35951 ft 423 kts 211°
2026-05-05 19:11 36.09491 -114.28049 35941 ft 422 kts 217°
2026-05-05 19:12 36.05312 -114.33064 35938 ft 419 kts 229°
2026-05-05 19:12 36.01433 -114.38455 35934 ft 420 kts 228°
2026-05-05 19:13 35.97539 -114.43848 35935 ft 420 kts 228°
2026-05-05 19:13 35.93655 -114.49220 35947 ft 419 kts 228°
2026-05-05 19:14 35.89766 -114.54578 35949 ft 418 kts 228°
2026-05-05 19:14 35.85888 -114.59919 35949 ft 418 kts 228°
2026-05-05 19:15 35.82011 -114.65258 35942 ft 418 kts 228°
2026-05-05 19:15 35.78130 -114.70586 35941 ft 418 kts 228°
2026-05-05 19:16 35.74267 -114.75887 35940 ft 418 kts 228°
2026-05-05 19:16 35.70372 -114.81216 35939 ft 419 kts 228°
2026-05-05 19:17 35.66462 -114.86553 35943 ft 420 kts 228°
2026-05-05 19:17 35.62560 -114.91904 35947 ft 420 kts 229°
2026-05-05 19:18 35.58655 -114.97257 35948 ft 421 kts 228°
2026-05-05 19:18 35.54727 -115.02613 35947 ft 421 kts 228°
2026-05-05 19:19 35.50798 -115.07952 35944 ft 422 kts 228°
2026-05-05 19:19 35.46834 -115.13216 35944 ft 423 kts 227°
2026-05-05 19:20 35.42792 -115.18454 35946 ft 423 kts 227°
2026-05-05 19:20 35.38746 -115.23690 35945 ft 423 kts 227°
2026-05-05 19:21 35.34713 -115.28950 35946 ft 423 kts 227°
2026-05-05 19:21 35.30672 -115.34206 35947 ft 425 kts 227°
2026-05-05 19:22 35.26616 -115.39471 35954 ft 425 kts 227°
2026-05-05 19:22 35.22564 -115.44731 35959 ft 425 kts 227°
2026-05-05 19:23 35.18500 -115.49993 35969 ft 425 kts 227°
2026-05-05 19:23 35.14433 -115.55239 35974 ft 425 kts 227°
2026-05-05 19:24 35.10395 -115.60447 35985 ft 425 kts 227°
2026-05-05 19:24 35.06316 -115.65671 35995 ft 425 kts 227°
2026-05-05 19:25 35.02231 -115.70874 35999 ft 424 kts 227°
2026-05-05 19:25 34.98150 -115.76072 36004 ft 424 kts 227°
2026-05-05 19:26 34.94080 -115.81261 36006 ft 423 kts 227°
2026-05-05 19:26 34.90020 -115.86439 36010 ft 422 kts 227°
2026-05-05 19:27 34.85958 -115.91590 36016 ft 421 kts 227°
2026-05-05 19:27 34.81901 -115.96720 36016 ft 420 kts 227°
2026-05-05 19:28 34.77886 -116.01802 36022 ft 418 kts 227°
2026-05-05 19:28 34.75838 -116.04395 35738 ft 421 kts 227°
2026-05-05 19:28 34.73837 -116.06937 35444 ft 423 kts 227°
2026-05-05 19:29 34.71805 -116.09530 35143 ft 424 kts 227°
2026-05-05 19:29 34.69776 -116.12127 34654 ft 423 kts 227°
2026-05-05 19:29 34.67748 -116.14717 34157 ft 422 kts 227°
2026-05-05 19:29 34.65723 -116.17296 33649 ft 422 kts 227°
2026-05-05 19:30 34.63693 -116.19874 33046 ft 423 kts 227°
2026-05-05 19:30 34.61655 -116.22456 32446 ft 424 kts 227°
2026-05-05 19:30 34.59611 -116.25045 31852 ft 426 kts 227°
2026-05-05 19:30 34.57560 -116.27643 31240 ft 427 kts 227°
2026-05-05 19:31 34.55497 -116.30251 30636 ft 429 kts 227°
2026-05-05 19:31 34.53425 -116.32871 30037 ft 432 kts 227°
2026-05-05 19:31 34.51342 -116.35507 29431 ft 434 kts 227°
2026-05-05 19:31 34.49244 -116.38157 28829 ft 437 kts 227°
2026-05-05 19:32 34.47128 -116.40831 28226 ft 440 kts 227°
2026-05-05 19:32 34.44999 -116.43518 27623 ft 443 kts 227°
2026-05-05 19:32 34.42864 -116.46240 27019 ft 446 kts 229°
2026-05-05 19:32 34.41053 -116.49294 26418 ft 449 kts 240°
2026-05-05 19:33 34.39636 -116.52677 25820 ft 453 kts 243°
2026-05-05 19:33 34.38252 -116.56057 25224 ft 456 kts 243°
2026-05-05 19:33 34.36834 -116.59508 24619 ft 459 kts 243°
2026-05-05 19:33 34.35401 -116.62975 24164 ft 462 kts 243°
2026-05-05 19:34 34.33949 -116.66472 24001 ft 465 kts 243°
2026-05-05 19:34 34.32500 -116.69976 24057 ft 467 kts 244°
2026-05-05 19:34 34.31063 -116.73510 24053 ft 468 kts 244°
2026-05-05 19:35 34.28237 -116.80599 24063 ft 468 kts 244°
2026-05-05 19:35 34.26826 -116.84148 24064 ft 468 kts 244°
2026-05-05 19:35 34.25406 -116.87697 24065 ft 469 kts 244°
2026-05-05 19:35 34.23978 -116.91236 24063 ft 469 kts 244°
2026-05-05 19:36 34.22542 -116.94780 24064 ft 470 kts 244°
2026-05-05 19:36 34.21141 -116.98351 24061 ft 469 kts 248°
2026-05-05 19:36 34.20084 -117.02075 24061 ft 469 kts 252°
2026-05-05 19:36 34.19065 -117.05829 24054 ft 470 kts 252°
2026-05-05 19:37 34.18059 -117.09541 23071 ft 470 kts 252°
2026-05-05 19:37 34.17059 -117.13235 21944 ft 455 kts 252°
2026-05-05 19:37 34.16100 -117.16776 21021 ft 432 kts 252°
2026-05-05 19:37 34.15183 -117.20137 20220 ft 411 kts 252°
2026-05-05 19:38 34.14307 -117.23336 19421 ft 392 kts 252°
2026-05-05 19:38 34.13464 -117.26401 18621 ft 377 kts 252°
2026-05-05 19:38 34.12650 -117.29350 17821 ft 364 kts 252°
2026-05-05 19:38 34.11857 -117.32209 17019 ft 354 kts 252°
2026-05-05 19:39 34.11084 -117.35000 16217 ft 348 kts 252°
2026-05-05 19:39 34.10326 -117.37754 15413 ft 344 kts 252°
2026-05-05 19:39 34.09610 -117.40489 14608 ft 340 kts 253°
2026-05-05 19:39 34.08928 -117.43197 13818 ft 335 kts 254°
2026-05-05 19:40 34.08268 -117.45869 13424 ft 333 kts 254°
2026-05-05 19:40 34.07614 -117.48539 13033 ft 331 kts 254°
2026-05-05 19:40 34.07093 -117.51224 12666 ft 328 kts 261°
2026-05-05 19:40 34.06716 -117.53901 12295 ft 327 kts 261°
2026-05-05 19:41 34.06328 -117.56580 11921 ft 325 kts 260°
2026-05-05 19:41 34.05937 -117.59237 11539 ft 314 kts 260°
2026-05-05 19:41 34.05567 -117.61742 11182 ft 295 kts 260°
2026-05-05 19:41 34.05215 -117.64121 10834 ft 288 kts 260°
2026-05-05 19:42 34.04867 -117.66485 10485 ft 285 kts 260°
2026-05-05 19:42 34.04521 -117.68837 10132 ft 284 kts 260°
2026-05-05 19:42 34.04176 -117.71172 9783 ft 282 kts 260°
2026-05-05 19:42 34.03830 -117.73499 9433 ft 281 kts 260°
2026-05-05 19:43 34.03484 -117.75815 9094 ft 282 kts 259°
2026-05-05 19:43 34.03142 -117.78096 8728 ft 271 kts 259°
2026-05-05 19:43 34.02813 -117.80313 8389 ft 269 kts 259°
2026-05-05 19:43 34.02483 -117.82531 8032 ft 268 kts 259°
2026-05-05 19:44 34.02152 -117.84741 7680 ft 267 kts 259°
2026-05-05 19:44 34.01827 -117.86938 7332 ft 265 kts 259°
2026-05-05 19:44 34.01504 -117.89115 6980 ft 263 kts 259°
2026-05-05 19:44 34.01180 -117.91276 6627 ft 261 kts 259°
2026-05-05 19:45 34.00857 -117.93421 6278 ft 259 kts 259°
2026-05-05 19:45 34.00540 -117.95526 5931 ft 258 kts 259°
2026-05-05 19:45 34.00222 -117.97649 5580 ft 257 kts 259°
2026-05-05 19:45 33.99903 -117.99758 5225 ft 255 kts 259°
2026-05-05 19:46 33.99588 -118.01851 4876 ft 253 kts 259°
2026-05-05 19:46 33.99251 -118.03925 4521 ft 252 kts 253°
2026-05-05 19:46 33.98731 -118.05935 4173 ft 251 kts 256°
2026-05-05 19:46 33.98438 -118.07993 3978 ft 248 kts 263°
2026-05-05 19:47 33.98239 -118.10065 3976 ft 250 kts 261°
2026-05-05 19:47 33.98039 -118.12142 3987 ft 250 kts 263°
2026-05-05 19:47 33.97832 -118.14222 3993 ft 250 kts 263°
2026-05-05 19:47 33.97624 -118.16303 3919 ft 251 kts 263°
2026-05-05 19:48 33.97416 -118.18379 3649 ft 249 kts 263°
2026-05-05 19:48 33.97210 -118.20440 3344 ft 247 kts 263°
2026-05-05 19:48 33.97003 -118.22489 3007 ft 245 kts 263°
2026-05-05 19:48 33.96805 -118.24468 2691 ft 233 kts 263°
2026-05-05 19:49 33.96615 -118.26352 2412 ft 223 kts 263°
2026-05-05 19:49 33.96491 -118.27575 2201 ft 214 kts 263°
2026-05-05 19:49 33.96257 -118.29884 1828 ft 206 kts 263°
2026-05-05 19:49 33.96092 -118.31522 1579 ft 188 kts 263°
2026-05-05 19:50 33.95938 -118.33032 1356 ft 174 kts 263°
2026-05-05 19:50 33.95799 -118.34416 1106 ft 160 kts 264°
2026-05-05 19:50 33.95668 -118.35701 897 ft 153 kts 262°
2026-05-05 19:50 33.95546 -118.36932 692 ft 143 kts 262°
2026-05-05 19:51 33.95423 -118.38100 470 ft 139 kts 262°
2026-05-05 19:51 33.95308 -118.39255 269 ft 139 kts 261°
2026-05-05 19:51 33.95187 -118.40393 112 ft 138 kts 262°
2026-05-05 19:51 33.95080 -118.41427 95 ft 98 kts 263°
2026-05-05 19:52 33.95020 -118.42021 95 ft 48 kts 263°
2026-05-05 19:52 33.94989 -118.42262 97 ft 23 kts 253°
2026-05-05 19:52 33.94921 -118.42394 94 ft 12 kts 231°
2026-05-05 19:52 33.94895 -118.42431 94 ft 0 kts 229°
2026-05-05 19:53 33.94894 -118.42433 94 ft 0 kts 228°
2026-05-05 19:53 33.94887 -118.42442 95 ft 7 kts 226°
2026-05-05 19:53 33.94785 -118.42484 100 ft 18 kts 182°
2026-05-05 19:54 33.94673 -118.42441 95 ft 17 kts 116°
2026-05-05 19:54 33.94677 -118.42302 95 ft 16 kts 82°
2026-05-05 19:54 33.94686 -118.42218 97 ft 14 kts 82°
2026-05-05 19:54 33.94699 -118.42103 94 ft 13 kts 83°
2026-05-05 19:55 33.94710 -118.41998 93 ft 12 kts 83°
2026-05-05 19:55 33.94722 -118.41873 93 ft 18 kts 83°
2026-05-05 19:55 33.94735 -118.41737 94 ft 15 kts 84°
2026-05-05 19:55 33.94745 -118.41620 93 ft 15 kts 84°
2026-05-05 19:56 33.94762 -118.41453 97 ft 25 kts 83°
2026-05-05 19:56 33.94795 -118.41248 94 ft 24 kts 82°
2026-05-05 19:56 33.94816 -118.41054 96 ft 23 kts 83°
2026-05-05 19:56 33.94835 -118.40869 97 ft 22 kts 83°
2026-05-05 19:57 33.94854 -118.40693 94 ft 18 kts 84°
2026-05-05 19:57 33.94822 -118.40599 95 ft 15 kts 153°
2026-05-05 19:57 33.94794 -118.40487 94 ft 6 kts 86°
2026-05-05 19:57 33.94770 -118.40457 93 ft 5 kts 150°
2026-05-05 19:58 33.94743 -118.40446 93 ft 4 kts 162°
2026-05-05 19:58 33.94727 -118.40440 93 ft 0 kts 162°